Flag for Tanzania

Past Weather in Bukoba, Tanzania — Yesterday and Last 2 Weeks

Now
68 °F

Clear.


Feels Like: 68 °F
Forecast: 79 / 68 °F
Wind: 6 mph from Northwest

Location: Bukoba

Current Time: Aug 7, 2020 at 1:41:12 am

Latest Report: Aug 6, 2020 at 10:00 pm


Visibility: 10 mi

Pressure: 30.07 "Hg (26.29 "Hg at 1153m altitude)

Humidity: 88%

Dew Point: 64 °F

Location of BukobaLocation

Past Weather in Bukoba — Graph

°F

Bukoba Temperature Yesterday

Maximum temperature yesterday: 82 °F (at 2:00 pm)
Minimum temperature yesterday: 66 °F (at 6:00 am)
Average temperature yesterday: 75 °F

High & Low Weather Summary for the Past Weeks

 TemperatureHumidityPressure
High82 °F (Aug 6, 2:00 pm)100% (Aug 5, 6:00 am)30.18 "Hg (Aug 5, 6:00 am)
Low36 °F (Aug 5, 6:00 am)47% (Aug 4, 12:00 am)29.92 "Hg (Jul 23, 6:00 pm)
Average73 °F67%30.04 "Hg
* Reported Jul 22 10:00 pm — Aug 6 10:00 pm, Bukoba. Weather by CustomWeather, © 2020

Note: Actual official high and low records may vary slightly from our data, if they occured in-between our weather recording intervals... More about our weather records

Bukoba Weather History for the Previous 24 Hours

Scroll right to see more
 ConditionsComfort  
Time TempWeatherWind HumidityBarometerVisibility
10:00 pm
Thu, Aug 6
68 °FClear.6 mph88%30.07 "Hg10 mi
9:00 pm70 °FClear.12 mph83%30.04 "Hg10 mi
8:00 pm73 °FClear.No wind78%30.04 "Hg10 mi
7:00 pm75 °FClear.No wind74%30.01 "Hg10 mi
6:00 pm79 °FSunny.6 mph70%30.01 "Hg10 mi
5:00 pm79 °FPassing clouds.12 mph70%30.01 "HgN/A
4:00 pm81 °FPassing clouds.7 mph62%30.04 "HgN/A
3:00 pm82 °FPassing clouds.12 mph58%30.04 "HgN/A
2:00 pm82 °FPassing clouds.9 mph58%30.07 "HgN/A
1:00 pm81 °FPassing clouds.9 mph58%30.09 "HgN/A
12:00 pm81 °FPassing clouds.9 mph58%30.12 "HgN/A
11:00 am81 °FScattered clouds.9 mph62%30.12 "HgN/A
10:00 am79 °FScattered clouds.No wind65%30.12 "HgN/A
9:00 am73 °FPassing clouds.No wind74%30.09 "HgN/A
8:00 am66 °FPassing clouds.No wind83%30.07 "HgN/A
7:00 am66 °FMild.No wind83%30.07 "HgN/A
6:00 am66 °FPassing clouds.No wind83%30.04 "HgN/A
2:00 am70 °FClear.No wind83%30.04 "Hg10 mi
Weather by CustomWeather, © 2020

See weather overview